TimeEST,TemperatureF,Dew PointF,Humidity,Sea Level PressureIn,VisibilityMPH,Wind Direction,Wind SpeedMPH,Gust SpeedMPH,PrecipitationIn,Events,Conditions,WindDirDegrees,DateUTC
12:15 AM,51.1,45.0,80,29.54,10.0,WNW,16.1,-,N/A,,Overcast,290,2012-12-11 05:15:00
12:50 AM,48.2,44.6,87,29.57,10.0,NW,15.0,-,N/A,,Overcast,310,2012-12-11 05:50:00
12:54 AM,48.9,44.1,83,29.58,10.0,NW,11.5,21.9,N/A,,Overcast,320,2012-12-11 05:54:00
1:37 AM,46.9,41.0,80,29.59,10.0,NW,6.9,-,N/A,,Overcast,310,2012-12-11 06:37:00
1:52 AM,46.4,39.2,76,29.60,10.0,NNW,11.5,-,N/A,,Overcast,340,2012-12-11 06:52:00
1:54 AM,46.9,39.0,74,29.61,10.0,NW,9.2,-,N/A,,Overcast,320,2012-12-11 06:54:00
2:54 AM,45.0,37.0,74,29.65,10.0,WNW,12.7,17.3,N/A,,Overcast,300,2012-12-11 07:54:00
3:09 AM,45.0,36.0,71,29.64,10.0,WNW,9.2,-,N/A,,Overcast,300,2012-12-11 08:09:00
3:54 AM,44.1,37.0,76,29.66,10.0,WNW,5.8,-,N/A,,Overcast,290,2012-12-11 08:54:00
4:54 AM,43.0,39.9,89,29.68,10.0,West,6.9,-,0.02,Rain,Light Rain,260,2012-12-11 09:54:00
5:18 AM,42.1,39.0,89,29.67,10.0,West,10.4,-,0.00,,Overcast,280,2012-12-11 10:18:00
5:35 AM,42.1,37.9,85,29.67,10.0,Variable,5.8,-,0.00,,Overcast,0,2012-12-11 10:35:00
5:54 AM,41.0,37.9,89,29.70,10.0,WNW,9.2,-,0.00,,Overcast,300,2012-12-11 10:54:00
6:54 AM,39.2,35.6,87,29.71,10.0,WNW,9.2,-,N/A,,Overcast,290,2012-12-11 11:54:00
7:54 AM,39.9,35.1,83,29.76,10.0,WNW,8.1,-,0.00,,Overcast,290,2012-12-11 12:54:00
8:54 AM,39.9,33.1,77,29.82,10.0,WNW,12.7,21.9,N/A,,Overcast,290,2012-12-11 13:54:00
9:19 AM,39.9,33.1,77,29.82,10.0,West,13.8,20.7,N/A,,Overcast,280,2012-12-11 14:19:00
9:54 AM,39.0,30.9,73,29.84,10.0,WNW,11.5,20.7,N/A,,Mostly Cloudy,290,2012-12-11 14:54:00
10:09 AM,39.9,28.9,65,29.82,10.0,WNW,12.7,23.0,N/A,,Scattered Clouds,290,2012-12-11 15:09:00
10:54 AM,39.0,27.0,62,29.83,10.0,WNW,21.9,27.6,N/A,,Partly Cloudy,300,2012-12-11 15:54:00
11:54 AM,41.0,26.1,55,29.86,10.0,WNW,17.3,23.0,N/A,,Clear,290,2012-12-11 16:54:00
12:54 PM,41.0,24.1,51,29.88,10.0,WNW,12.7,20.7,N/A,,Clear,300,2012-12-11 17:54:00
1:54 PM,42.1,24.1,49,29.90,10.0,NW,13.8,-,N/A,,Clear,310,2012-12-11 18:54:00
2:54 PM,41.0,21.9,47,29.92,10.0,WNW,12.7,25.3,N/A,,Clear,290,2012-12-11 19:54:00
3:54 PM,37.9,21.9,53,29.95,10.0,WNW,13.8,-,N/A,,Clear,300,2012-12-11 20:54:00
4:54 PM,36.0,21.9,57,29.99,10.0,WNW,8.1,-,N/A,,Clear,290,2012-12-11 21:54:00
5:54 PM,34.0,21.0,59,30.03,10.0,West,8.1,-,N/A,,Clear,280,2012-12-11 22:54:00
6:54 PM,33.1,21.0,61,30.06,10.0,WNW,10.4,-,N/A,,Clear,290,2012-12-11 23:54:00
7:54 PM,32.0,19.9,61,30.09,10.0,WNW,13.8,-,N/A,,Clear,290,2012-12-12 00:54:00
8:54 PM,30.9,19.9,64,30.09,10.0,West,10.4,-,N/A,,Clear,270,2012-12-12 01:54:00
9:54 PM,30.9,18.0,59,30.10,10.0,West,19.6,26.5,N/A,,Clear,280,2012-12-12 02:54:00
10:54 PM,30.0,18.0,61,30.12,10.0,West,15.0,25.3,N/A,,Clear,280,2012-12-12 03:54:00
11:54 PM,30.0,18.0,61,30.14,10.0,WNW,17.3,-,N/A,,Clear,290,2012-12-12 04:54:00